| time (UTC) | temp F | wind direction | speed MPH | gust MPH | rain 1hr in | rain 24hr in | rain mn in | humidity % | barometer mb |
| 20260504034557 | 53 | 0 | 0.0 | 0.0 | 0.00 | 0.03 | 0.03 | 76 | 1005.5 |
| 20260504033119 | 53 | 0 | 0.0 | 0.0 | 0.00 | 0.03 | 0.03 | 75 | 1005.6 |
| 20260504031546 | 54 | 0 | 0.0 | 0.0 | 0.00 | 0.03 | 0.03 | 73 | 1005.6 |
| 20260504030047 | 55 | 0 | 0.0 | 0.0 | 0.00 | 0.03 | 0.03 | 71 | 1005.6 |
| 20260504024544 | 55 | 0 | 0.0 | 0.0 | 0.00 | 0.03 | 0.03 | 71 | 1005.6 |
| 20260504023100 | 55 | 0 | 0.0 | 0.0 | 0.00 | 0.03 | 0.03 | 70 | 1005.7 |
| 20260504021548 | 56 | 0 | 0.0 | 0.0 | 0.00 | 0.03 | 0.03 | 68 | 1005.6 |
| 20260504020056 | 57 | 0 | 0.0 | 0.0 | 0.00 | 0.03 | 0.03 | 67 | 1005.4 |
| 20260504014550 | 57 | 0 | 0.0 | 0.0 | 0.00 | 0.03 | 0.03 | 66 | 1005.4 |
| 20260504013049 | 58 | 0 | 0.0 | 0.0 | 0.00 | 0.03 | 0.03 | 65 | 1005.4 |
| 20260504011542 | 59 | 0 | 0.0 | 0.0 | 0.00 | 0.03 | 0.03 | 64 | 1005.3 |
| 20260504010052 | 61 | 0 | 0.0 | 0.0 | 0.00 | 0.03 | 0.03 | 63 | 1005.1 |
| 20260504004600 | 63 | 0 | 0.0 | 2.0 | 0.00 | 0.03 | 0.03 | 56 | 1005.0 |
| 20260504003046 | 65 | 0 | 0.0 | 1.0 | 0.00 | 0.03 | 0.03 | 53 | 1005.1 |
| 20260504001549 | 67 | 0 | 0.0 | 1.0 | 0.00 | 0.03 | 0.03 | 51 | 1005.1 |
| 20260504000046 | 68 | 0 | 0.0 | 1.0 | 0.00 | 0.03 | 0.03 | 50 | 1005.1 |
| 20260503234546 | 68 | 336 | 0.0 | 2.0 | 0.00 | 0.03 | 0.03 | 51 | 1005.1 |
| 20260503233050 | 69 | 288 | 0.0 | 3.0 | 0.00 | 0.03 | 0.03 | 50 | 1005.1 |
| 20260503231548 | 70 | 289 | 1.0 | 2.0 | 0.00 | 0.03 | 0.03 | 46 | 1005.2 |
| 20260503230054 | 70 | 292 | 1.0 | 6.0 | 0.00 | 0.03 | 0.03 | 45 | 1005.3 |
| 20260503224546 | 71 | 321 | 3.0 | 7.0 | 0.00 | 0.03 | 0.03 | 42 | 1005.5 |
| 20260503223049 | 71 | 331 | 1.0 | 3.0 | 0.00 | 0.03 | 0.03 | 42 | 1005.6 |
| 20260503221544 | 71 | 275 | 1.0 | 6.0 | 0.00 | 0.03 | 0.03 | 44 | 1005.6 |
| 20260503220051 | 71 | 270 | 2.0 | 6.0 | 0.00 | 0.03 | 0.03 | 42 | 1005.6 |
| 20260503214547 | 71 | 254 | 2.0 | 5.0 | 0.00 | 0.03 | 0.03 | 46 | 1005.6 |
| 20260503213100 | 71 | 344 | 2.0 | 5.0 | 0.00 | 0.03 | 0.03 | 44 | 1005.7 |
| 20260503211546 | 70 | 273 | 1.0 | 10.0 | 0.00 | 0.03 | 0.03 | 47 | 1005.7 |
| 20260503210054 | 70 | 249 | 1.0 | 7.0 | 0.00 | 0.03 | 0.03 | 47 | 1006.1 |
| 20260503204550 | 70 | 235 | 1.0 | 4.0 | 0.00 | 0.03 | 0.03 | 46 | 1006.4 |
| 20260503203043 | 70 | 265 | 2.0 | 7.0 | 0.00 | 0.03 | 0.03 | 46 | 1006.6 |
| 20260503201548 | 69 | 288 | 2.0 | 8.0 | 0.00 | 0.03 | 0.03 | 51 | 1006.8 |
| 20260503200057 | 68 | 274 | 2.0 | 6.0 | 0.00 | 0.03 | 0.03 | 48 | 1007.1 |
| 20260503194548 | 66 | 242 | 2.0 | 12.0 | 0.00 | 0.03 | 0.03 | 48 | 1007.4 |
| 20260503193052 | 67 | 310 | 1.0 | 14.0 | 0.00 | 0.03 | 0.03 | 49 | 1007.6 |
| 20260503191543 | 66 | 285 | 2.0 | 7.0 | 0.00 | 0.03 | 0.03 | 50 | 1007.9 |
| 20260503190041 | 63 | 136 | 6.0 | 18.0 | 0.00 | 0.03 | 0.03 | 51 | 1008.2 |
| 20260503184551 | 62 | 152 | 4.0 | 21.0 | 0.00 | 0.03 | 0.03 | 53 | 1008.3 |
| 20260503183102 | 63 | 137 | 3.0 | 14.0 | 0.00 | 0.03 | 0.03 | 50 | 1008.3 |
| 20260503181547 | 61 | 257 | 5.0 | 16.0 | 0.01 | 0.03 | 0.03 | 50 | 1008.3 |
| 20260503180048 | 61 | 99 | 3.0 | 12.0 | 0.01 | 0.03 | 0.03 | 51 | 1008.8 |
| 20260503174543 | 59 | 244 | 10.0 | 18.0 | 0.01 | 0.03 | 0.03 | 53 | 1008.9 |
| 20260503173108 | 59 | 109 | 10.0 | 18.0 | 0.01 | 0.03 | 0.03 | 56 | 1009.2 |
| 20260503171550 | 59 | 221 | 6.0 | 16.0 | 0.00 | 0.02 | 0.02 | 60 | 1009.8 |
| 20260503081550 | 42 | 0 | 0.0 | 0.0 | 0.00 | 0.01 | 0.00 | 69 | 1014.0 |
| 20260503071547 | 43 | 0 | 0.0 | 0.0 | 0.00 | 0.01 | 0.00 | 67 | 1014.0 |
| 20260503054546 | 41 | 0 | 0.0 | 0.0 | 0.00 | 0.01 | 0.00 | 69 | 1014.8 |
| 20260503053042 | 41 | 0 | 0.0 | 0.0 | 0.00 | 0.01 | 0.00 | 70 | 1014.9 |
| 20260503051540 | 41 | 0 | 0.0 | 0.0 | 0.00 | 0.01 | 0.00 | 71 | 1015.0 |
| 20260503050048 | 41 | 0 | 0.0 | 0.0 | 0.00 | 0.01 | 0.00 | 71 | 1015.2 |
| 20260503044548 | 41 | 0 | 0.0 | 0.0 | 0.00 | 0.01 | 0.01 | 69 | 1015.2 |
| 20260503043047 | 42 | 0 | 0.0 | 0.0 | 0.00 | 0.01 | 0.01 | 70 | 1015.2 |
| 20260503041556 | 42 | 0 | 0.0 | 0.0 | 0.00 | 0.01 | 0.01 | 71 | 1015.3 |
| 20260503040050 | 42 | 0 | 0.0 | 0.0 | 0.00 | 0.01 | 0.01 | 69 | 1015.4 |